Powrót do katalogu

STARLINK-4754

AktywnyŁącznośćVLEO
NORAD 53842·PAYLOAD·🇺🇸 United States

Wystrzelony Sep 19, 2022 z Cape Canaveral Space Force Station

Loading…

Następne Przeloty (najbliższe 24 godziny)

TLE

ŚwieżeSource: CelesTrak SupGP

Epoka: Sep 15, 2026, 02:49 UTC

1 53842C 22114AA  26258.11784722  .00255110  00000+0  14421-1 0  2581
2 53842  53.1595 162.9997 0001390  81.7348 165.0227 15.12461559    12

Śledź STARLINK-4754 w czasie rzeczywistym z AllMySat

Download on the App Store